TimeEST,TemperatureF,Dew PointF,Humidity,Sea Level PressureIn,VisibilityMPH,Wind Direction,Wind SpeedMPH,Gust SpeedMPH,PrecipitationIn,Events,Conditions,WindDirDegrees,DateUTC
12:53 AM,30.9,30.9,100,30.01,2.0,South,6.9,-,N/A,,Overcast,170,2013-01-13 05:53:00
12:56 AM,30.2,30.2,100,29.97,1.2,South,8.1,-,N/A,,Overcast,170,2013-01-13 05:56:00
1:06 AM,32.0,30.2,93,29.98,0.5,South,8.1,-,N/A,Fog,Fog,180,2013-01-13 06:06:00
1:53 AM,33.1,32.0,96,30.02,0.2,South,9.2,-,N/A,Fog,Fog,190,2013-01-13 06:53:00
2:53 AM,33.1,32.0,96,30.02,0.2,South,6.9,-,N/A,Fog,Fog,190,2013-01-13 07:53:00
3:53 AM,33.1,32.0,96,30.02,0.2,South,9.2,-,N/A,Fog,Fog,190,2013-01-13 08:53:00
4:53 AM,33.1,33.1,100,30.04,0.2,South,5.8,-,N/A,Fog,Fog,180,2013-01-13 09:53:00
5:53 AM,33.1,32.0,96,30.04,0.2,SSE,8.1,-,N/A,Fog,Fog,150,2013-01-13 10:53:00
6:53 AM,33.1,33.1,100,30.04,0.2,South,5.8,-,N/A,Fog,Fog,170,2013-01-13 11:53:00
7:53 AM,34.0,33.1,96,30.05,0.5,South,4.6,-,N/A,Fog,Fog,170,2013-01-13 12:53:00
8:53 AM,33.1,33.1,100,30.02,0.2,East,6.9,-,N/A,Fog,Fog,100,2013-01-13 13:53:00
9:16 AM,33.8,33.8,100,29.99,1.5,ESE,5.8,-,N/A,,Overcast,110,2013-01-13 14:16:00
9:20 AM,33.8,33.8,100,30.00,2.0,ESE,4.6,-,N/A,,Overcast,110,2013-01-13 14:20:00
9:29 AM,33.8,33.8,100,30.01,5.0,South,3.5,-,N/A,,Overcast,170,2013-01-13 14:29:00
9:53 AM,34.0,34.0,100,30.03,9.0,SSE,5.8,-,N/A,,Overcast,160,2013-01-13 14:53:00
10:53 AM,35.1,35.1,100,30.01,10.0,SSE,4.6,-,N/A,,Overcast,150,2013-01-13 15:53:00
11:53 AM,36.0,35.1,97,30.02,10.0,Calm,Calm,-,N/A,,Overcast,0,2013-01-13 16:53:00
12:11 PM,37.4,35.6,93,30.00,10.0,West,3.5,-,N/A,,Overcast,280,2013-01-13 17:11:00
12:42 PM,39.2,35.6,87,29.97,10.0,Calm,Calm,-,N/A,,Mostly Cloudy,0,2013-01-13 17:42:00
12:53 PM,39.0,36.0,89,30.00,10.0,Calm,Calm,-,N/A,,Scattered Clouds,0,2013-01-13 17:53:00
1:53 PM,39.0,36.0,89,29.98,10.0,ESE,6.9,-,N/A,,Clear,110,2013-01-13 18:53:00
2:53 PM,39.9,36.0,86,29.96,10.0,ESE,5.8,-,N/A,,Scattered Clouds,110,2013-01-13 19:53:00
3:53 PM,39.0,36.0,89,29.91,10.0,ESE,9.2,-,0.00,,Overcast,110,2013-01-13 20:53:00
4:53 PM,37.9,36.0,93,29.87,10.0,SE,13.8,21.9,0.00,,Overcast,130,2013-01-13 21:53:00
5:33 PM,37.4,35.6,93,29.87,10.0,SSE,9.2,-,N/A,,Overcast,150,2013-01-13 22:33:00
5:42 PM,37.4,35.6,93,29.86,10.0,SE,11.5,-,0.00,Rain,Light Rain,140,2013-01-13 22:42:00
5:53 PM,36.0,35.1,97,29.88,10.0,SE,9.2,-,0.00,Rain,Light Rain,140,2013-01-13 22:53:00
6:21 PM,35.6,35.6,100,29.84,7.0,SE,9.2,-,0.00,,Overcast,140,2013-01-13 23:21:00
6:38 PM,35.6,35.6,100,29.84,1.8,SE,10.4,-,0.00,,Overcast,140,2013-01-13 23:38:00
6:40 PM,35.6,35.6,100,29.84,1.2,SSE,9.2,-,0.00,,Overcast,150,2013-01-13 23:40:00
6:48 PM,35.6,35.6,100,29.84,0.5,SSE,10.4,-,0.00,Fog,Fog,150,2013-01-13 23:48:00
6:53 PM,35.1,35.1,100,29.86,0.2,SSE,10.4,-,0.00,Fog,Fog,150,2013-01-13 23:53:00
7:53 PM,35.1,35.1,100,29.86,0.2,SSE,9.2,-,N/A,Fog,Fog,150,2013-01-14 00:53:00
8:53 PM,35.1,35.1,100,29.85,0.2,SSE,11.5,-,N/A,Fog,Fog,150,2013-01-14 01:53:00
9:53 PM,35.1,35.1,100,29.84,0.2,SSE,10.4,-,N/A,Fog,Fog,150,2013-01-14 02:53:00
10:53 PM,35.1,35.1,100,29.83,0.2,SSE,9.2,-,N/A,Fog,Fog,150,2013-01-14 03:53:00
11:53 PM,35.1,35.1,100,29.83,0.2,SSE,6.9,-,N/A,Fog,Fog,160,2013-01-14 04:53:00